Dewpoint
19 19 22 27 32 18 20 18 18 22 29 29 26 29 32 33 29 26 35 41 38 39 42 50 52 53 53 53 54 56 57 59 59 60 60 60 60 60 60 61 62 61 61 61 62 63 63 64 64 64 65 65 65 65 65 66 67 68 68 68 68 69 69 70 70 70 71 71 71 71 72 72 72 71 71 71 71 71 71 71 71 71 72 71 68 67 68
22 21 22 27 26 21 21 19 19 21 27 27 26 30 34 30 34 34 37 41 36 39 40 49 52 54 54 54 55 57 58 58 59 59 60 60 60 60 60 60 61 61 61 61 62 62 63 63 64 64 65 65 64 64 65 66 66 68 68 67 67 67 68 68 68 69 70 71 71 71 71 71 72 72 71 72 72 72 72 72 71 72 72 72 72 69 67
22 22 34 23 21 23 21 22 22 22 26 27 29 32 36 38 35 40 40 40 38 41 46 50 53 54 55 55 55 56 57 59 60 59 60 59 59 60 60 60 60 61 61 61 62 63 63 63 63 63 63 63 64 65 65 65 66 68 67 66 66 66 67 67 67 67 68 68 69 69 70 70 70 70 70 70 71 71 71 71 71 71 71 71 71 71 69
19 19 20 21 23 22 23 24 27 22 22 25 26 31 39 33 33 40 40 37 36 40 48 53 53 54 54 54 54 56 58 59 60 59 59 59 59 59 60 60 60 61 61 61 62 62 62 62 62 61 62 63 63 65 65 65 67 67 66 65 65 65 66 66 66 65 66 66 66 66 67 69 69 70 70 70 70 70 71 70 71 71 70 70 71 70 70
22 20 23 19 18 17 18 19 17 22 23 31 30 35 41 34 38 36 33 32 37 41 51 51 52 53 53 54 54 55 58 59 60 59 59 59 59 60 60 60 61 61 61 61 62 62 62 62 63 62 62 63 64 64 64 66 66 65 64 64 64 64 64 65 65 65 65 65 65 65 66 66 67 68 70 71 71 71 70 71 72 71 71 71 71 71 70
24 23 26 21 17 15 21 27 28 25 20 25 27 30 35 39 34 36 34 32 43 48 50 49 51 52 53 54 55 56 58 59 60 60 60 60 60 60 60 60 61 61 61 62 62 62 63 63 63 64 64 65 64 65 66 65 63 63 63 63 63 63 64 64 64 64 65 64 64 65 65 65 66 67 68 68 70 72 72 72 72 71 71 71 71 71 71
24 26 25 19 15 17 29 33 36 33 25 23 23 40 37 39 44 44 43 46 45 48 49 49 51 53 54 55 56 57 59 60 60 60 60 60 60 60 60 60 60 61 61 61 61 62 63 63 64 64 65 65 65 65 63 63 63 62 62 62 62 62 63 64 64 64 64 64 64 65 65 65 65 66 66 67 68 70 72 72 72 72 72 71 71 71 71
26 22 22 13 19 28 32 30 42 45 40 40 33 34 36 43 42 44 43 44 46 47 50 52 53 54 56 57 58 58 60 61 60 60 60 60 60 60 60 60 60 61 61 62 62 63 64 65 64 62 63 64 64 63 62 62 62 62 61 61 62 62 64 64 64 64 64 64 64 64 65 65 65 65 66 67 67 68 70 71 72 72 72 72 71 71 72
26 28 20 18 31 24 31 34 35 37 35 33 28 26 31 41 46 46 45 48 49 52 54 55 56 56 56 55 55 58 60 61 61 61 61 61 61 60 60 61 61 61 62 62 63 64 64 64 63 63 63 63 63 62 62 61 62 61 61 61 62 63 64 64 64 64 64 64 64 65 65 65 65 65 65 66 67 68 68 69 70 71 72 72 72 72 71
32 26 23 23 20 20 28 34 36 37 33 36 37 29 32 42 46 48 48 48 50 53 55 55 55 55 52 51 53 56 58 60 61 60 61 61 61 60 61 61 61 61 62 63 65 64 63 62 62 62 63 63 62 61 61 61 61 61 61 62 63 63 63 63 63 63 63 63 64 64 64 64 64 65 66 66 67 68 68 68 69 70 71 71 71 71 71
27 25 21 20 20 26 34 33 35 33 37 35 41 30 27 39 46 49 48 49 52 53 54 55 53 51 48 49 51 55 58 59 60 60 60 60 60 61 61 61 61 61 62 64 64 63 62 63 62 62 62 61 61 61 62 61 61 62 62 63 63 63 63 63 62 62 62 63 63 63 63 63 64 64 64 65 66 67 68 69 69 70 71 71 70 70 69
32 29 22 22 27 26 30 37 36 35 38 31 29 23 27 37 46 49 49 50 52 54 54 54 51 48 46 47 49 56 59 59 60 60 59 60 60 60 60 60 61 62 64 65 62 62 62 62 61 61 61 62 62 60 61 62 63 62 62 63 63 63 63 62 62 61 61 62 62 62 62 63 63 64 65 65 65 65 66 68 69 70 70 70 69 65 64
35 35 27 27 27 36 37 38 40 39 34 29 23 22 29 39 47 50 50 51 53 54 54 53 49 49 47 49 54 59 59 59 59 60 60 60 60 60 60 62 66 63 63 62 61 62 62 61 62 61 62 62 62 63 63 62 62 62 63 63 62 62 61 61 60 60 60 60 61 61 62 63 63 64 64 63 64 64 65 66 69 68 67 66 63 61 61
30 33 29 27 31 34 45 47 44 41 34 26 24 29 38 44 48 51 51 52 54 54 54 52 50 50 56 59 59 59 59 59 59 59 59 59 60 60 63 66 64 62 61 61 61 61 61 61 62 62 62 63 63 63 62 62 63 64 64 62 61 60 60 59 59 59 59 60 61 61 62 62 62 62 63 63 63 63 63 63 64 63 62 61 60 60 59
30 30 27 23 23 30 46 47 38 37 33 31 37 39 42 48 49 51 52 53 54 54 54 53 54 57 58 58 58 58 58 58 58 59 59 59 59 61 64 64 64 62 61 61 61 61 61 61 61 61 62 63 63 63 62 62 63 63 62 61 60 60 60 59 59 59 59 59 59 60 61 61 61 62 62 61 61 62 61 61 60 59 59 59 59 59 58
30 28 27 26 32 41 48 46 42 40 43 44 48 46 43 49 51 52 52 53 54 55 53 53 57 57 57 58 58 58 58 58 59 59 59 59 60 62 63 63 63 63 61 60 60 60 60 61 61 61 62 62 62 62 61 61 63 62 61 61 60 60 59 59 59 58 58 58 58 59 60 60 61 61 61 61 61 60 60 60 59 59 59 59 59 58 57
36 33 32 35 44 47 49 49 48 48 49 51 51 48 46 48 50 53 53 53 55 55 54 56 57 57 58 57 57 57 57 58 58 59 59 59 61 62 62 62 63 62 60 60 60 60 60 60 60 60 61 62 64 62 61 62 62 61 60 60 59 59 59 59 59 58 57 56 56 56 57 59 59 59 60 61 60 60 60 59 59 58 58 58 57 57 57
46 46 45 47 47 48 48 48 50 49 51 53 51 47 46 47 50 52 52 54 55 55 56 56 57 57 57 57 57 57 57 58 58 59 59 59 61 61 61 62 63 60 60 59 59 59 54 54 55 61 59 61 63 62 61 61 59 59 60 60 60 59 59 59 58 58 57 55 54 55 56 56 58 59 58 59 60 59 59 59 59 58 58 58 58 57 56
35 34 44 46 46 48 48 47 48 51 52 53 54 53 49 48 50 52 54 55 55 56 57 55 56 57 57 56 56 57 57 57 58 58 58 59 60 60 61 62 62 59 58 58 59 58 54 53 55 57 57 59 60 60 60 59 59 60 61 60 60 59 59 58 57 57 56 56 54 53 52 53 54 57 58 58 58 59 59 59 59 58 58 57 57 57 57
37 38 43 46 49 49 49 49 50 50 52 54 55 56 53 50 54 53 55 56 56 58 56 57 57 57 57 56 55 56 56 57 57 57 58 58 59 59 60 61 58 58 58 58 58 56 54 54 56 57 59 60 60 59 59 59 59 60 60 60 59 58 58 58 57 56 56 57 54 52 52 51 50 51 54 57 56 56 57 58 58 57 57 57 57 56 56
45 47 47 49 47 46 47 49 50 53 54 55 55 55 52 52 51 53 56 57 58 57 56 57 57 57 56 55 55 56 55 55 55 56 57 58 58 57 57 57 57 57 57 57 57 55 55 56 57 57 58 59 59 59 59 59 60 60 60 60 59 58 58 57 57 57 56 55 55 53 52 51 50 49 49 52 55 55 54 55 57 57 56 56 57 57 56
43 43 44 50 43 42 48 50 51 54 56 56 56 55 53 52 53 56 57 58 58 57 57 57 57 56 55 54 55 54 54 54 54 55 57 57 56 55 56 56 56 57 57 56 56 55 55 56 57 57 57 58 59 59 59 59 60 61 61 60 59 58 58 57 56 56 56 55 55 55 54 53 52 50 50 46 49 52 52 52 49 48 50 55 55 55 54
43 47 50 52 51 51 51 52 54 56 56 57 56 56 56 57 58 59 58 58 58 57 58 57 56 55 54 53 54 53 52 53 54 55 56 55 54 53 53 53 53 55 55 56 56 56 56 58 59 58 57 57 58 59 59 60 60 60 61 60 59 58 58 57 57 56 56 55 55 55 55 54 53 52 51 50 44 45 48 48 46 44 44 46 49 51 54
47 50 52 53 54 53 55 54 55 57 57 57 57 56 58 58 58 57 58 58 57 57 57 57 56 55 53 53 53 52 52 52 53 54 55 55 53 53 53 53 53 54 55 56 56 57 56 58 58 58 57 57 58 59 59 59 60 60 61 60 59 58 58 57 57 57 56 56 56 55 55 54 53 53 52 52 51 46 44 45 45 43 43 43 44 46 48
47 52 54 55 55 55 57 58 58 57 57 57 57 56 58 58 58 57 57 57 58 57 56 54 53 53 52 52 52 52 51 51 53 54 54 54 53 52 52 53 53 54 55 56 56 56 56 57 57 58 57 57 58 59 59 60 60 60 60 60 58 58 58 58 58 57 57 57 56 56 55 54 54 53 52 52 51 51 51 45 44 44 43 43 43 43 43
51 52 54 55 56 58 58 58 58 56 57 57 57 59 59 61 59 59 58 58 57 57 57 53 51 51 52 51 51 50 51 51 54 54 52 53 53 52 51 52 53 55 55 55 55 56 57 58 56 56 57 57 58 59 59 61 61 61 60 60 59 58 58 57 57 56 57 57 56 56 56 55 54 54 53 53 52 52 52 52 52 49 46 44 42 44 43
54 55 53 50 52 52 57 57 55 56 57 56 58 57 58 59 62 59 57 57 58 57 56 54 52 51 52 52 51 51 51 52 53 52 52 52 52 52 52 53 55 56 56 56 57 58 60 60 57 57 57 58 59 60 61 61 61 61 61 60 60 59 59 59 57 57 57 57 57 57 56 56 56 56 56 56 56 54 53 53 52 52 52 52 47 42 46
53 54 51 48 49 49 51 57 59 57 57 57 58 57 57 57 57 57 56 56 56 56 55 55 51 51 51 51 51 52 52 52 51 51 51 51 51 51 52 54 56 57 57 58 58 62 59 57 56 56 56 57 60 61 61 61 61 61 61 60 59 59 59 59 58 58 58 57 57 57 57 57 58 57 56 55 55 54 53 54 53 53 53 52 52 51 46
53 53 53 53 52 52 55 58 58 57 56 57 59 58 57 56 56 56 56 56 56 56 56 54 52 53 51 51 52 51 51 50 50 50 51 51 52 52 54 56 56 57 58 59 59 58 55 55 55 55 56 57 60 61 61 61 61 61 61 60 59 58 58 58 58 58 58 58 58 58 58 57 57 57 56 55 55 54 54 54 53 53 52 52 53 53 53
53 53 54 54 56 56 56 55 56 57 57 57 57 56 56 56 55 56 56 57 57 57 57 57 56 53 52 51 52 51 50 50 50 50 51 52 52 54 56 57 57 57 57 57 57 55 55 54 55 55 55 57 59 61 61 62 62 62 61 61 60 59 58 59 59 59 58 59 59 58 58 57 57 57 56 56 55 55 54 54 54 53 53 54 53 53 52
53 53 53 54 55 55 54 54 55 56 56 56 56 56 56 56 55 55 56 57 57 57 58 58 57 56 53 51 52 52 51 50 51 51 51 52 53 55 56 56 55 56 56 57 57 55 55 54 54 54 55 57 59 60 61 62 62 62 61 61 60 59 60 60 60 59 59 59 58 57 57 57 57 57 56 56 56 55 55 54 54 54 54 54 53 53 54
52 52 52 52 53 53 53 53 53 55 56 57 56 56 56 55 55 55 56 57 57 57 58 58 58 58 57 55 53 53 52 52 52 52 52 53 54 56 57 56 56 58 56 57 57 56 55 54 54 54 55 57 59 60 61 61 62 61 61 61 60 61 61 61 61 60 60 59 58 58 58 57 57 57 57 56 56 55 54 54 54 54 54 54 54 54 55
48 48 48 49 53 53 52 53 53 54 56 56 56 56 57 57 57 57 57 57 58 57 58 58 58 59 58 57 56 53 53 53 53 53 53 53 54 56 57 56 56 56 56 56 58 57 55 54 54 54 55 57 58 59 60 61 61 61 61 61 61 61 62 61 61 61 60 59 58 58 58 58 57 57 56 56 56 56 56 55 55 54 54 54 55 55 52
48 51 51 51 53 52 52 53 55 56 56 57 56 56 57 57 57 58 58 58 58 58 58 58 58 58 58 57 56 55 54 53 52 52 52 53 55 56 57 58 56 56 56 56 58 57 55 54 54 55 55 56 58 58 59 60 61 61 61 61 61 61 61 62 62 61 60 59 58 59 58 58 57 56 57 57 57 56 57 56 56 55 54 55 55 53 48
50 51 51 51 53 54 55 56 56 56 56 56 56 56 57 57 57 57 58 58 58 58 59 59 59 58 58 57 56 55 54 54 53 54 54 55 55 56 57 57 56 55 55 56 58 57 55 54 55 55 54 56 57 58 58 59 60 61 61 61 62 62 62 62 61 61 60 59 59 59 58 58 57 58 58 57 57 57 57 57 56 55 55 55 56 55 53
52 52 52 52 53 53 54 55 55 55 56 56 56 56 57 57 58 58 59 58 58 59 59 59 59 59 58 57 56 55 55 55 55 55 55 56 56 57 58 57 56 55 54 55 57 58 57 55 60 58 54 55 56 58 58 58 59 60 61 61 62 62 62 62 62 62 61 60 60 59 58 58 58 58 59 58 58 58 57 57 56 56 55 55 56 56 54
55 52 51 51 52 53 53 53 53 55 56 56 57 57 57 57 58 59 59 58 58 58 59 59 59 59 59 58 57 56 56 57 57 56 57 57 57 57 57 57 56 55 55 53 55 57 58 55 61 59 57 57 57 57 60 62 58 59 61 61 61 62 62 62 62 62 61 61 60 60 59 59 59 59 59 57 57 57 56 56 57 56 55 56 57 56 54
56 55 55 55 55 54 54 55 57 57 57 57 57 58 57 57 58 58 58 58 59 58 58 58 59 60 60 59 58 57 57 57 57 57 57 57 57 57 57 57 56 56 54 53 55 57 58 57 62 60 53 55 55 56 60 63 61 58 59 60 61 61 61 60 61 61 61 60 61 60 60 60 59 59 59 57 57 57 57 57 57 56 55 56 56 56 55
57 57 57 57 56 56 56 56 57 58 58 57 56 56 57 57 58 58 58 58 58 58 58 58 58 59 59 59 59 58 57 57 57 57 57 57 57 56 56 56 57 56 55 56 56 57 59 59 61 59 54 54 53 53 61 63 62 58 58 59 60 60 60 61 60 60 60 61 61 60 60 59 59 58 59 58 57 57 58 57 57 57 55 55 56 56 55
56 57 57 57 57 57 56 56 55 56 57 56 56 55 56 57 57 58 58 58 58 59 58 58 58 58 58 59 59 58 58 58 57 56 57 57 57 57 57 57 58 58 59 60 57 57 59 60 60 59 55 54 54 52 58 63 61 57 56 56 57 57 58 59 59 59 60 60 60 61 59 59 59 58 58 58 58 57 57 58 57 57 55 55 56 56 56
56 56 57 56 57 56 56 56 56 54 55 56 57 56 56 58 58 57 57 58 58 58 58 58 58 59 59 59 59 59 59 59 58 57 58 57 57 57 56 56 57 58 59 59 58 58 60 61 59 58 56 54 54 56 57 63 57 55 55 55 55 55 55 56 56 57 57 58 59 59 59 58 58 59 58 58 58 57 57 57 57 57 56 55 55 55 55
56 56 57 57 57 57 56 55 55 55 55 54 56 56 56 57 58 58 58 58 58 58 58 58 60 59 59 59 59 59 59 59 59 59 58 57 57 56 56 56 58 58 60 61 60 60 60 60 60 60 56 55 55 60 61 61 53 54 54 54 54 55 54 56 56 56 57 57 57 58 58 58 58 58 57 58 58 57 57 57 57 57 57 56 55 55 55
56 56 57 56 56 56 56 56 56 56 56 56 55 55 56 57 58 58 58 58 58 58 58 58 58 60 59 58 58 58 58 59 60 60 60 59 59 58 57 57 59 59 60 60 60 60 59 60 59 58 59 56 55 62 63 57 52 52 52 53 54 54 54 55 56 56 56 56 57 57 57 57 57 57 56 57 57 57 56 56 56 57 57 56 56 55 54
55 56 55 55 56 56 55 54 55 55 56 56 56 55 56 56 56 57 58 58 58 58 58 57 57 58 58 58 58 58 58 59 59 60 60 60 60 60 60 59 60 60 60 61 60 60 59 59 59 59 61 60 59 63 59 55 53 52 52 53 53 53 53 55 55 55 54 54 55 55 56 56 56 56 56 56 56 56 56 56 56 56 56 57 56 56 55
55 55 56 56 56 56 54 54 57 57 57 57 56 56 56 56 56 56 57 57 58 58 58 58 57 58 58 58 58 58 59 59 60 60 60 59 59 59 60 61 60 60 60 61 60 60 59 59 59 60 61 61 62 63 57 55 53 52 52 53 53 52 53 53 54 54 54 53 53 53 54 55 55 55 55 55 55 55 56 55 55 55 56 56 56 55 55
55 55 55 60 58 56 56 56 57 57 56 57 57 57 57 56 56 56 57 58 58 58 58 58 58 58 58 59 59 59 58 59 60 61 61 61 60 60 60 60 59 61 60 60 59 60 60 59 59 59 60 61 62 62 57 55 54 54 53 53 53 54 53 53 54 53 54 53 53 53 53 53 53 53 53 53 54 55 55 54 55 56 56 55 55 55 55
55 55 54 55 55 56 57 55 56 55 55 55 56 56 56 56 56 57 57 57 58 58 58 58 58 58 59 59 59 59 59 58 59 60 61 61 61 62 61 60 60 60 60 60 59 59 59 59 58 59 60 62 63 59 57 55 54 53 53 53 53 54 53 54 54 53 53 53 53 54 54 53 52 51 52 53 53 53 53 54 55 55 55 55 55 55 54
56 55 55 55 56 56 55 55 55 53 53 54 54 55 56 55 55 57 57 57 57 57 57 57 58 58 58 59 59 60 60 60 59 59 60 61 61 61 61 61 60 60 60 62 61 60 59 59 58 58 59 61 62 58 56 55 54 53 53 53 53 53 53 53 52 52 52 52 54 53 53 52 51 52 52 52 52 52 53 53 54 54 54 54 54 54 54
55 55 56 56 56 56 56 56 55 55 55 55 55 56 56 56 57 58 58 58 58 57 57 57 57 57 58 59 59 60 60 61 60 60 61 61 61 61 61 61 60 59 60 60 60 60 59 57 57 57 58 62 59 56 55 54 54 53 53 52 52 52 52 51 52 52 51 51 52 52 52 51 51 51 51 51 51 52 52 52 52 52 53 53 53 53 53
55 55 54 54 54 54 55 55 55 56 55 55 55 56 56 56 57 57 58 59 59 59 58 57 57 57 56 56 58 59 59 60 59 59 60 61 60 61 61 61 60 60 61 60 60 60 59 59 58 58 58 59 57 55 54 53 53 53 53 53 52 52 52 51 52 51 51 52 51 51 51 51 50 51 51 50 51 51 51 51 51 52 52 52 52 52 52
55 55 54 55 55 55 55 56 56 56 55 55 55 56 57 57 57 57 57 58 58 58 58 57 56 56 55 55 56 58 58 59 59 60 60 60 60 60 60 61 60 60 60 60 58 58 58 58 57 57 58 58 56 54 54 53 53 53 53 52 52 52 51 51 50 51 50 51 50 50 50 50 51 51 50 50 51 51 51 51 51 52 52 51 52 52 52
55 55 54 54 55 55 55 55 55 56 56 56 56 57 57 56 56 57 57 58 58 57 57 57 57 57 56 56 57 57 58 59 60 60 61 60 60 60 60 60 60 60 60 59 58 57 57 57 57 58 58 56 55 54 55 56 52 53 53 53 53 52 51 51 50 50 50 51 50 50 51 50 50 50 50 51 50 50 51 50 51 50 50 50 51 51 51